Regional Weather Roundup
Issued by NWS

Home | Current Version | Previous Version | Graphics & Text | Print | Product List | Glossary On
Versions: 1 2 3 4 5 6 7 8 9 10 11 12 13 14 15 16 17 18 19 20 21 22 23 24 25 26 27 28 29 30 31 32 33 34 35 36 37 38 39 40 41 42 43 44 45 46 47 48 49 50
000
ASUS43 KFSD 160110
RWRSD

WEATHER ROUNDUP FOR SOUTH DAKOTA
NATIONAL WEATHER SERVICE SIOUX FALLS SD
800 PM CDT TUE APR 15 2014

NOTE: "FAIR" INDICATES FEW OR NO CLOUDS BELOW 12,000 FEET WITH NO
SIGNIFICANT WEATHER AND/OR OBSTRUCTIONS TO VISIBILITY.


SDZ001>005-009-010-012>017-160200-
NORTHWEST AND NORTH CENTRAL SOUTH DAKOTA

CITY           SKY/WX    TMP DP  RH WIND       PRES   REMARKS
BUFFALO          N/A     56  24  29 NW28G39   29.49R
MOBRIDGE       CLOUDY    46  22  38 E25       29.60S
$$

SDZ012>016-024>037-041>051-057-063-072>074-160200-
SOUTHWEST AND SOUTH CENTRAL SOUTH DAKOTA

CITY           SKY/WX    TMP DP  RH WIND       PRES   REMARKS
RAPID CTY ARPT CLOUDY    58  26  29 N16       29.53S
PIERRE         CLOUDY    54  27  35 SE16      29.55F
CUSTER         CLOUDY    50  18  28 W6        29.59F
ELLSWORTH AFB  CLOUDY    60  26  27 E5        29.54R
PHILIP         CLOUDY    61  21  21 SE6       29.51F
PINE RIDGE     CLOUDY    59  25  27 SW8       29.57F
SPEARFISH      FAIR      54  28  37 NW13G21   29.59R
WINNER         FAIR      64  24  21 W3        29.57F
$$

SDZ004>011-016>023-039-040-160200-
NORTHEAST SOUTH DAKOTA

CITY           SKY/WX    TMP DP  RH WIND       PRES   REMARKS
ABERDEEN       MOCLDY    42  20  41 E16       29.76F
WATERTOWN      MOCLDY    39  19  44 SE14      29.80F
SISSETON         N/A     34  14  43 SE13      29.89F WCI  25
$$

SDZ017-020-022-023-036>040-048>070-160200-
SOUTHEAST SOUTH DAKOTA

CITY           SKY/WX    TMP DP  RH WIND       PRES   REMARKS
SIOUX FALLS    MOCLDY    45  22  40 SE18G28   29.81F
HURON          MOCLDY    48  25  40 SE15G24   29.69F
CHAMBERLAIN      N/A     56  29  35 SE20      29.59F
MITCHELL       PTCLDY    51  30  44 SE20G31   29.70F
YANKTON        PTCLDY    48  28  46 SE16G24   29.77F
$$

ABBREVIATIONS USED IN REMARKS
   TC - TEMPERATURE IN CELSIUS
  WCI - WIND CHILL INDEX
   HX - HEAT INDEX
  VSB - VISIBILITY




USA.gov is the U.S. government's official web portal to all federal, state and local government web resources and services.